Location: Taipo
(41.0000°S, 175.9500°E)
Time: 02:18:47
(UTC+00:00)

OAO 3 Rocket - Pass Details

Date: 18 April 2024
Orbit: 622 x 672 km, 35.0° (Epoch: 22 May)

Event Time Altitude Azimuth Distance (km) Brightness Sun altitude
Exits shadow 17:28:36 22° 305° (NW) 1,422 4.4 -16.1°
Maximum altitude 17:31:12 40° 2° (N) 944 4.0 -15.6°
Drops below altitude 10° 17:35:36 10° 71° (ENE) 2,021 6.9 -14.8°
Sets 17:38:02 0° 78° (ENE) 2,922 8.3 -14.3°
